JST112 YMML-YSSY

Flight info

Callsign JST112
Flight time 1h 10m
Altitude 39000
Route ML H129 DOSEL Y59 RIVET
Aircraft A320/M-SDE3FGHIRWY/LB1

Departure

Time 2026-04-30 06:04
Airport Melbourne Airport (YMML)

Arrival

Time 2026-04-30 07:15
Airport Sydney Kingsford Smith International Airport (YSSY)
Time Latitude Longitude Altitude Speed Heading
2026-04-30 05:26 -37.67523 144.84639 354 ft 0 kts 171°
2026-04-30 05:52 -37.67511 144.84637 362 ft 4 kts 172°
2026-04-30 05:52 -37.67484 144.84634 356 ft 4 kts 181°
2026-04-30 05:52 -37.67458 144.84638 361 ft 4 kts 207°
2026-04-30 05:52 -37.67444 144.84655 361 ft 1 kts 262°
2026-04-30 05:53 -37.67444 144.84656 361 ft 1 kts 262°
2026-04-30 05:59 -37.67444 144.84655 354 ft 0 kts 262°
2026-04-30 05:59 -37.67446 144.84639 360 ft 4 kts 262°
2026-04-30 05:59 -37.67452 144.84591 356 ft 6 kts 260°
2026-04-30 05:59 -37.67460 144.84534 357 ft 7 kts 260°
2026-04-30 06:00 -37.67467 144.84470 358 ft 8 kts 263°
2026-04-30 06:00 -37.67491 144.84406 359 ft 7 kts 250°
2026-04-30 06:00 -37.67506 144.84337 364 ft 9 kts 214°
2026-04-30 06:00 -37.67584 144.84342 361 ft 14 kts 173°
2026-04-30 06:01 -37.67696 144.84359 358 ft 19 kts 173°
2026-04-30 06:01 -37.67840 144.84389 355 ft 23 kts 171°
2026-04-30 06:01 -37.68018 144.84423 350 ft 28 kts 171°
2026-04-30 06:01 -37.68218 144.84460 339 ft 25 kts 172°
2026-04-30 06:02 -37.68384 144.84438 333 ft 26 kts 211°
2026-04-30 06:02 -37.68511 144.84329 328 ft 15 kts 219°
2026-04-30 06:02 -37.68552 144.84228 332 ft 7 kts 260°
2026-04-30 06:02 -37.68554 144.84198 331 ft 9 kts 266°
2026-04-30 06:03 -37.68544 144.84113 332 ft 10 kts 303°
2026-04-30 06:03 -37.68465 144.84077 335 ft 22 kts 351°
2026-04-30 06:03 -37.68088 144.84008 348 ft 90 kts 351°
2026-04-30 06:03 -37.67282 144.83856 377 ft 141 kts 352°
2026-04-30 06:04 -37.66287 144.83660 1007 ft 144 kts 353°
2026-04-30 06:04 -37.65294 144.83468 1714 ft 147 kts 352°
2026-04-30 06:04 -37.64264 144.83289 2360 ft 150 kts 353°
2026-04-30 06:05 -37.62026 144.82899 3346 ft 178 kts 351°
2026-04-30 06:05 -37.60729 144.82644 3700 ft 200 kts 351°
2026-04-30 06:05 -37.59251 144.82466 4121 ft 228 kts
2026-04-30 06:05 -37.57678 144.83161 4748 ft 252 kts 24°
2026-04-30 06:06 -37.56082 144.84160 4962 ft 257 kts 23°
2026-04-30 06:06 -37.54476 144.85138 5074 ft 258 kts 23°
2026-04-30 06:06 -37.52831 144.86127 5997 ft 261 kts 22°
2026-04-30 06:06 -37.51194 144.87112 7127 ft 262 kts 22°
2026-04-30 06:07 -37.49536 144.88109 8068 ft 267 kts 22°
2026-04-30 06:07 -37.47849 144.89125 9002 ft 272 kts 22°
2026-04-30 06:07 -37.46122 144.90168 9870 ft 279 kts 22°
2026-04-30 06:07 -37.44378 144.91386 10427 ft 300 kts 32°
2026-04-30 06:08 -37.43289 144.92542 10675 ft 318 kts 43°
2026-04-30 06:08 -37.41903 144.94784 11319 ft 330 kts 52°
2026-04-30 06:08 -37.40584 144.97172 12105 ft 334 kts 51°
2026-04-30 06:08 -37.39234 144.99576 12907 ft 338 kts 51°
2026-04-30 06:09 -37.37858 145.01999 13699 ft 343 kts 51°
2026-04-30 06:09 -37.36460 145.04450 14439 ft 347 kts 51°
2026-04-30 06:09 -37.35046 145.06933 15129 ft 351 kts 51°
2026-04-30 06:09 -37.33620 145.09443 15832 ft 354 kts 51°
2026-04-30 06:10 -37.32183 145.11978 16523 ft 358 kts 51°
2026-04-30 06:10 -37.30738 145.14532 17219 ft 361 kts 50°
2026-04-30 06:10 -37.29276 145.17111 17922 ft 364 kts 50°
2026-04-30 06:10 -37.27796 145.19716 18620 ft 367 kts 50°
2026-04-30 06:11 -37.26308 145.22334 19235 ft 371 kts 50°
2026-04-30 06:11 -37.24806 145.24976 19875 ft 373 kts 50°
2026-04-30 06:11 -37.23290 145.27640 20501 ft 376 kts 50°
2026-04-30 06:11 -37.21761 145.30324 21116 ft 379 kts 50°
2026-04-30 06:12 -37.20223 145.33022 21702 ft 382 kts 50°
2026-04-30 06:12 -37.18667 145.35741 22269 ft 385 kts 49°
2026-04-30 06:12 -37.17099 145.38482 22828 ft 389 kts 49°
2026-04-30 06:12 -37.15518 145.41248 23376 ft 392 kts 49°
2026-04-30 06:13 -37.13925 145.44032 23924 ft 395 kts 50°
2026-04-30 06:13 -37.12312 145.46847 24384 ft 398 kts 50°
2026-04-30 06:13 -37.10688 145.49676 24846 ft 401 kts 50°
2026-04-30 06:13 -37.09051 145.52528 25292 ft 404 kts 50°
2026-04-30 06:14 -37.07406 145.55391 25736 ft 407 kts 50°
2026-04-30 06:14 -37.05749 145.58274 26179 ft 410 kts 50°
2026-04-30 06:14 -37.04081 145.61174 26635 ft 412 kts 50°
2026-04-30 06:14 -37.02401 145.64094 27084 ft 415 kts 50°
2026-04-30 06:15 -37.00707 145.67033 27537 ft 417 kts 50°
2026-04-30 06:15 -36.99003 145.69982 27983 ft 420 kts 50°
2026-04-30 06:15 -36.97286 145.72951 28418 ft 422 kts 50°
2026-04-30 06:15 -36.95561 145.75934 28850 ft 425 kts 50°
2026-04-30 06:16 -36.93824 145.78940 29274 ft 428 kts 50°
2026-04-30 06:16 -36.92079 145.81961 29727 ft 430 kts 50°
2026-04-30 06:16 -36.90321 145.84996 30169 ft 433 kts 50°
2026-04-30 06:16 -36.88548 145.88051 30576 ft 435 kts 50°
2026-04-30 06:17 -36.86761 145.91121 30936 ft 438 kts 50°
2026-04-30 06:17 -36.84963 145.94208 31281 ft 442 kts 50°
2026-04-30 06:17 -36.83152 145.97319 31636 ft 445 kts 50°
2026-04-30 06:17 -36.81323 146.00459 31945 ft 449 kts 50°
2026-04-30 06:18 -36.79486 146.03615 32328 ft 450 kts 50°
2026-04-30 06:18 -36.77649 146.06772 32800 ft 450 kts 50°
2026-04-30 06:18 -36.75805 146.09936 33261 ft 451 kts 51°
2026-04-30 06:18 -36.73963 146.13090 33752 ft 450 kts 50°
2026-04-30 06:19 -36.72115 146.16241 34248 ft 450 kts 50°
2026-04-30 06:19 -36.70266 146.19389 34674 ft 450 kts 50°
2026-04-30 06:19 -36.68423 146.22532 35102 ft 449 kts 50°
2026-04-30 06:19 -36.66582 146.25674 35517 ft 448 kts 50°
2026-04-30 06:20 -36.64748 146.28806 35923 ft 448 kts 50°
2026-04-30 06:20 -36.62912 146.31932 36340 ft 447 kts 50°
2026-04-30 06:20 -36.61077 146.35048 36687 ft 447 kts 51°
2026-04-30 06:20 -36.59238 146.38172 37054 ft 447 kts 50°
2026-04-30 06:21 -36.57402 146.41289 37405 ft 447 kts 50°
2026-04-30 06:21 -36.55568 146.44399 37754 ft 446 kts 50°
2026-04-30 06:21 -36.53731 146.47513 38104 ft 446 kts 50°
2026-04-30 06:21 -36.51894 146.50625 38439 ft 446 kts 50°
2026-04-30 06:22 -36.50055 146.53734 38783 ft 446 kts 50°
2026-04-30 06:22 -36.48216 146.56838 39080 ft 446 kts 50°
2026-04-30 06:22 -36.46372 146.59940 39274 ft 447 kts 50°
2026-04-30 06:23 -36.42672 146.66166 39346 ft 448 kts 50°
2026-04-30 06:23 -36.38970 146.72403 39345 ft 448 kts 50°
2026-04-30 06:24 -36.35269 146.78627 39343 ft 448 kts 50°
2026-04-30 06:24 -36.31557 146.84843 39352 ft 449 kts 50°
2026-04-30 06:25 -36.27824 146.91078 39354 ft 451 kts 50°
2026-04-30 06:25 -36.24089 146.97319 39357 ft 451 kts 50°
2026-04-30 06:26 -36.20342 147.03563 39352 ft 451 kts 50°
2026-04-30 06:26 -36.16592 147.09795 39358 ft 452 kts 50°
2026-04-30 06:27 -36.12843 147.16026 39355 ft 452 kts 50°
2026-04-30 06:27 -36.09077 147.22265 39361 ft 453 kts 50°
2026-04-30 06:28 -36.05309 147.28503 39360 ft 453 kts 50°
2026-04-30 06:28 -36.01534 147.34744 39364 ft 453 kts 50°
2026-04-30 06:29 -35.97751 147.40972 39372 ft 454 kts 50°
2026-04-30 06:29 -35.93956 147.47198 39373 ft 454 kts 50°
2026-04-30 06:30 -35.90165 147.53428 39374 ft 454 kts 50°
2026-04-30 06:30 -35.86371 147.59653 39389 ft 454 kts 50°
2026-04-30 06:31 -35.82548 147.65918 39378 ft 454 kts 50°
2026-04-30 06:31 -35.78739 147.72132 39378 ft 454 kts 51°
2026-04-30 06:32 -35.74952 147.78308 39380 ft 455 kts 51°
2026-04-30 06:32 -35.71118 147.84557 39380 ft 455 kts 51°
2026-04-30 06:33 -35.67299 147.90765 39381 ft 455 kts 50°
2026-04-30 06:33 -35.63480 147.96963 39390 ft 455 kts 51°
2026-04-30 06:34 -35.59654 148.03160 39400 ft 455 kts 51°
2026-04-30 06:34 -35.55820 148.09343 39393 ft 455 kts 51°
2026-04-30 06:35 -35.51987 148.15515 39406 ft 455 kts 51°
2026-04-30 06:35 -35.48154 148.21701 39390 ft 455 kts 51°
2026-04-30 06:36 -35.44311 148.27873 39392 ft 455 kts 51°
2026-04-30 06:36 -35.40460 148.34047 39408 ft 456 kts 51°
2026-04-30 06:37 -35.36607 148.40212 39398 ft 456 kts 51°
2026-04-30 06:37 -35.32753 148.46381 39399 ft 456 kts 51°
2026-04-30 06:38 -35.28890 148.52548 39410 ft 456 kts 51°
2026-04-30 06:38 -35.25040 148.58682 39408 ft 457 kts 51°
2026-04-30 06:39 -35.21158 148.64865 39267 ft 465 kts 51°
2026-04-30 06:39 -35.19162 148.68034 39038 ft 473 kts 51°
2026-04-30 06:39 -35.17150 148.71225 38756 ft 473 kts 51°
2026-04-30 06:39 -35.15146 148.74401 38476 ft 471 kts 51°
2026-04-30 06:40 -35.13148 148.77560 38203 ft 469 kts 51°
2026-04-30 06:40 -35.11133 148.80744 37927 ft 466 kts 51°
2026-04-30 06:40 -35.09184 148.83821 37662 ft 463 kts 51°
2026-04-30 06:40 -35.07221 148.86920 37394 ft 460 kts 51°
2026-04-30 06:41 -35.05243 148.90040 37123 ft 457 kts 51°
2026-04-30 06:41 -35.03304 148.93102 36859 ft 454 kts 52°
2026-04-30 06:41 -35.01402 148.96103 36600 ft 452 kts 52°
2026-04-30 06:41 -34.99462 148.99163 36352 ft 449 kts 52°
2026-04-30 06:42 -34.97556 149.02164 36109 ft 446 kts 52°
2026-04-30 06:42 -34.95663 149.05138 35859 ft 443 kts 52°
2026-04-30 06:42 -34.93778 149.08098 35611 ft 440 kts 52°
2026-04-30 06:42 -34.91906 149.11035 35371 ft 437 kts 52°
2026-04-30 06:43 -34.90044 149.13953 35129 ft 435 kts 52°
2026-04-30 06:43 -34.88196 149.16846 34891 ft 432 kts 52°
2026-04-30 06:43 -34.86357 149.19721 34653 ft 429 kts 53°
2026-04-30 06:43 -34.84531 149.22575 34426 ft 426 kts 53°
2026-04-30 06:44 -34.82711 149.25419 34154 ft 424 kts 53°
2026-04-30 06:44 -34.80904 149.28244 33887 ft 421 kts 53°
2026-04-30 06:44 -34.79116 149.31038 33490 ft 417 kts 53°
2026-04-30 06:44 -34.77340 149.33807 33014 ft 414 kts 52°
2026-04-30 06:45 -34.75572 149.36559 32556 ft 411 kts 53°
2026-04-30 06:45 -34.73896 149.39353 32106 ft 408 kts 59°
2026-04-30 06:45 -34.72540 149.42364 31669 ft 405 kts 63°
2026-04-30 06:45 -34.71230 149.45385 31232 ft 403 kts 63°
2026-04-30 06:46 -34.69921 149.48380 30810 ft 400 kts 62°
2026-04-30 06:46 -34.68618 149.51358 30385 ft 398 kts 62°
2026-04-30 06:46 -34.67762 149.53319 30083 ft 397 kts 63°
2026-04-30 06:46 -34.66474 149.56268 29684 ft 393 kts 62°
2026-04-30 06:47 -34.65197 149.59185 29279 ft 390 kts 62°
2026-04-30 06:47 -34.63930 149.62079 28909 ft 386 kts 63°
2026-04-30 06:47 -34.62675 149.64946 28527 ft 383 kts 63°
2026-04-30 06:47 -34.61431 149.67784 28136 ft 379 kts 62°
2026-04-30 06:48 -34.60196 149.70598 27754 ft 376 kts 62°
2026-04-30 06:48 -34.58971 149.73391 27368 ft 373 kts 62°
2026-04-30 06:48 -34.57754 149.76164 26977 ft 371 kts 62°
2026-04-30 06:48 -34.56546 149.78909 26578 ft 368 kts 62°
2026-04-30 06:49 -34.55344 149.81640 26183 ft 366 kts 62°
2026-04-30 06:49 -34.54150 149.84354 25775 ft 364 kts 62°
2026-04-30 06:49 -34.52961 149.87052 25367 ft 362 kts 62°
2026-04-30 06:49 -34.51774 149.89740 24944 ft 361 kts 62°
2026-04-30 06:50 -34.50587 149.92422 24517 ft 360 kts 62°
2026-04-30 06:50 -34.49404 149.95100 24092 ft 359 kts 62°
2026-04-30 06:50 -34.48225 149.97770 23625 ft 359 kts 62°
2026-04-30 06:50 -34.47055 150.00427 23191 ft 356 kts 62°
2026-04-30 06:51 -34.45892 150.03059 22766 ft 353 kts 62°
2026-04-30 06:51 -34.44732 150.05676 22343 ft 351 kts 62°
2026-04-30 06:51 -34.43578 150.08271 21923 ft 349 kts 62°
2026-04-30 06:51 -34.42433 150.10848 21503 ft 346 kts 62°
2026-04-30 06:52 -34.41295 150.13407 21086 ft 344 kts 62°
2026-04-30 06:52 -34.40164 150.15952 20673 ft 343 kts 62°
2026-04-30 06:52 -34.39037 150.18487 20261 ft 341 kts 62°
2026-04-30 06:52 -34.37914 150.21011 19846 ft 340 kts 62°
2026-04-30 06:53 -34.36796 150.23527 19427 ft 339 kts 62°
2026-04-30 06:53 -34.35682 150.26032 19021 ft 338 kts 62°
2026-04-30 06:53 -34.34568 150.28531 18590 ft 337 kts 62°
2026-04-30 06:53 -34.33456 150.31019 18149 ft 335 kts 62°
2026-04-30 06:54 -34.32349 150.33490 17749 ft 332 kts 62°
2026-04-30 06:54 -34.31252 150.35939 17340 ft 330 kts 61°
2026-04-30 06:54 -34.30160 150.38368 16944 ft 328 kts 61°
2026-04-30 06:54 -34.29074 150.40786 16548 ft 326 kts 61°
2026-04-30 06:55 -34.27996 150.43184 16150 ft 324 kts 61°
2026-04-30 06:55 -34.26927 150.45574 15755 ft 322 kts 61°
2026-04-30 06:55 -34.25867 150.47951 15362 ft 321 kts 61°
2026-04-30 06:55 -34.24808 150.50328 14969 ft 320 kts 60°
2026-04-30 06:56 -34.23754 150.52689 14583 ft 319 kts 60°
2026-04-30 06:56 -34.22701 150.55044 14181 ft 318 kts 60°
2026-04-30 06:56 -34.21652 150.57388 13751 ft 316 kts 61°
2026-04-30 06:56 -34.20608 150.59714 13364 ft 314 kts 61°
2026-04-30 06:57 -34.19570 150.62026 12979 ft 312 kts 60°
2026-04-30 06:57 -34.18538 150.64318 12590 ft 310 kts 61°
2026-04-30 06:57 -34.17512 150.66599 12207 ft 308 kts 60°
2026-04-30 06:57 -34.16494 150.68865 11811 ft 306 kts 61°
2026-04-30 06:58 -34.15483 150.71120 11437 ft 304 kts 61°
2026-04-30 06:58 -34.14474 150.73360 11050 ft 303 kts 61°
2026-04-30 06:58 -34.13465 150.75603 10467 ft 309 kts 62°
2026-04-30 06:58 -34.12430 150.77899 10084 ft 305 kts 62°
2026-04-30 06:59 -34.11423 150.80126 9840 ft 297 kts 62°
2026-04-30 06:59 -34.10448 150.82282 9654 ft 289 kts 62°
2026-04-30 06:59 -34.09507 150.84364 9352 ft 284 kts 62°
2026-04-30 06:59 -34.08552 150.86487 8974 ft 284 kts 62°
2026-04-30 07:00 -34.07617 150.88569 8650 ft 281 kts 62°
2026-04-30 07:00 -34.06703 150.90597 8134 ft 278 kts 61°
2026-04-30 07:00 -34.05784 150.92629 7587 ft 273 kts 61°
2026-04-30 07:00 -34.04875 150.94646 7362 ft 273 kts 61°
2026-04-30 07:01 -34.03968 150.96658 7092 ft 271 kts 62°
2026-04-30 07:01 -34.03371 150.98791 6817 ft 270 kts 83°
2026-04-30 07:01 -34.03504 151.01033 6531 ft 270 kts 105°
2026-04-30 07:01 -34.04344 151.03046 6242 ft 271 kts 127°
2026-04-30 07:02 -34.05619 151.04714 5955 ft 271 kts 133°
2026-04-30 07:02 -34.06929 151.06330 5661 ft 269 kts 136°
2026-04-30 07:02 -34.08474 151.07600 5383 ft 270 kts 153°
2026-04-30 07:02 -34.10254 151.08324 5123 ft 273 kts 167°
2026-04-30 07:03 -34.12118 151.08795 4844 ft 274 kts 166°
2026-04-30 07:03 -34.13975 151.09271 4572 ft 272 kts 166°
2026-04-30 07:03 -34.15823 151.09749 4298 ft 271 kts 166°
2026-04-30 07:03 -34.17666 151.10227 4097 ft 267 kts 166°
2026-04-30 07:04 -34.19447 151.10691 4003 ft 256 kts 166°
2026-04-30 07:04 -34.21155 151.11133 3926 ft 245 kts 166°
2026-04-30 07:04 -34.22802 151.11557 3872 ft 241 kts 165°
2026-04-30 07:04 -34.24437 151.11979 3820 ft 239 kts 166°
2026-04-30 07:05 -34.27473 151.13366 3717 ft 232 kts 130°
2026-04-30 07:05 -34.28206 151.15014 3669 ft 226 kts 98°
2026-04-30 07:05 -34.28128 151.16900 3618 ft 223 kts 75°
2026-04-30 07:06 -34.27755 151.18722 3568 ft 223 kts 73°
2026-04-30 07:06 -34.27351 151.20526 3519 ft 222 kts 73°
2026-04-30 07:06 -34.26942 151.22322 3468 ft 222 kts 73°
2026-04-30 07:06 -34.26533 151.24125 3420 ft 223 kts 73°
2026-04-30 07:07 -34.26137 151.25904 3370 ft 221 kts 73°
2026-04-30 07:07 -34.25729 151.27727 3319 ft 221 kts 73°
2026-04-30 07:07 -34.25324 151.29524 3266 ft 221 kts 72°
2026-04-30 07:07 -34.24581 151.31115 3212 ft 218 kts 42°
2026-04-30 07:08 -34.23241 151.31924 3116 ft 219 kts
2026-04-30 07:08 -34.21739 151.31662 3022 ft 224 kts 336°
2026-04-30 07:08 -34.20521 151.30464 3023 ft 230 kts 315°
2026-04-30 07:08 -34.19459 151.29019 3018 ft 225 kts 313°
2026-04-30 07:09 -34.18475 151.27618 3014 ft 214 kts 313°
2026-04-30 07:09 -34.17522 151.26249 3013 ft 212 kts 313°
2026-04-30 07:09 -34.16572 151.24891 3013 ft 211 kts 313°
2026-04-30 07:09 -34.15601 151.23583 3012 ft 203 kts 323°
2026-04-30 07:10 -34.14421 151.22770 3010 ft 193 kts 345°
2026-04-30 07:10 -34.13132 151.22410 3017 ft 189 kts 350°
2026-04-30 07:10 -34.11844 151.22075 2979 ft 191 kts 351°
2026-04-30 07:10 -34.10579 151.21745 2821 ft 185 kts 351°
2026-04-30 07:11 -34.09335 151.21421 2574 ft 177 kts 351°
2026-04-30 07:11 -34.08150 151.21112 2349 ft 171 kts 351°
2026-04-30 07:11 -34.07023 151.20819 2129 ft 165 kts 351°
2026-04-30 07:11 -34.05914 151.20530 1913 ft 160 kts 352°
2026-04-30 07:12 -34.04839 151.20250 1710 ft 154 kts 352°
2026-04-30 07:12 -34.03814 151.19984 1497 ft 145 kts 351°
2026-04-30 07:12 -34.02869 151.19737 1327 ft 135 kts 353°
2026-04-30 07:12 -34.01969 151.19504 1144 ft 131 kts 352°
2026-04-30 07:13 -34.01081 151.19274 977 ft 131 kts 352°
2026-04-30 07:13 -34.00202 151.19030 836 ft 129 kts 353°
2026-04-30 07:13 -33.99323 151.18796 652 ft 129 kts 356°
2026-04-30 07:13 -33.98446 151.18582 479 ft 128 kts 352°
2026-04-30 07:14 -33.97580 151.18359 302 ft 127 kts 353°
2026-04-30 07:14 -33.96718 151.18140 141 ft 126 kts 354°
2026-04-30 07:14 -33.95874 151.17921 31 ft 115 kts 351°
2026-04-30 07:14 -33.95238 151.17756 29 ft 69 kts 348°
2026-04-30 07:15 -33.94858 151.17661 29 ft 46 kts 350°
2026-04-30 07:15 -33.94592 151.17658 29 ft 29 kts 11°
2026-04-30 07:15 -33.94487 151.17694 30 ft 7 kts 20°
2026-04-30 07:15 -33.94463 151.17704 30 ft 0 kts 19°
2026-04-30 07:16 -33.94430 151.17717 30 ft 6 kts 17°
2026-04-30 07:16 -33.94373 151.17738 30 ft 10 kts 15°
2026-04-30 07:16 -33.94309 151.17727 30 ft 0 kts 346°
2026-04-30 07:17 -33.94304 151.17725 30 ft 3 kts 346°
2026-04-30 07:17 -33.94209 151.17696 29 ft 11 kts 345°
2026-04-30 07:18 -33.94118 151.17669 29 ft 16 kts 346°
2026-04-30 07:18 -33.94002 151.17636 28 ft 16 kts 347°
2026-04-30 07:18 -33.93914 151.17615 29 ft 9 kts 357°
2026-04-30 07:18 -33.93864 151.17670 29 ft 12 kts 70°
2026-04-30 07:19 -33.93820 151.17757 30 ft 14 kts 26°
2026-04-30 07:19 -33.93719 151.17789 30 ft 16 kts 13°
2026-04-30 07:19 -33.93601 151.17822 30 ft 14 kts
2026-04-30 07:19 -33.93522 151.17839 30 ft 6 kts 11°
2026-04-30 07:20 -33.93493 151.17837 30 ft 1 kts 302°
2026-04-30 07:20 -33.93491 151.17813 30 ft 5 kts 280°
2026-04-30 07:20 -33.93486 151.17776 30 ft 3 kts 279°
2026-04-30 07:20 -33.93485 151.17770 30 ft 0 kts 279°